Hoquiam, WA

4:19 PM PDT on August 20, 2017 (GMT -0700)
Bowerman

Weather History for KHQM - November, 2012

Change the Weather History Date:

Thursday, November 1, 2012

  Actual Average Record
Temperature  
Mean Temperature 54 °F 49 °F  
Max Temperature 57 °F 55 °F 68 °F (1969)
Min Temperature 51 °F 43 °F 27 °F (2003)
Degree Days  
Heating Degree Days 11 16  
Month to date heating degree days 16  
Cooling Degree Days 0 0  
Month to date cooling degree days 0  
Year to date cooling degree days 23  
Growing Degree Days 4 (Base 50)    
Moisture  
Dew Point 52 °F    
Average Humidity 94    
Maximum Humidity 100    
Minimum Humidity 88    
Precipitation  
Precipitation 0.66 in 0.33 in 1.87 in (1977)
Month to date precipitation 0.33  
Year to date precipitation 46.75  
Sea Level Pressure  
Sea Level Pressure 29.84 in    
Wind  
Wind Speed 7 mph (SE)    
Max Wind Speed 13 mph    
Max Gust Speed 16 mph    
Visibility 8 miles    
Events Rain    
T = Trace of Precipitation, MM = Missing Value Source: NWS Daily Summary

Daily Weather History Graph

Daily Weather History Graph

Search for Another Location

Airport or City:

Trip Planner

Search our weather history database for the weather conditions in past years. The results will help you decide how hot, cold, wet, or windy it might be!

Date:

Astronomy

Nov. 01, 2012 Rise Set
Actual Time 7:59 AM PDT 5:58 PM PDT
Civil Twilight 7:27 AM PDT 6:30 PM PDT
Nautical Twilight 6:51 AM PDT 7:06 PM PDT
Astronomical Twilight 6:15 AM PDT 7:41 PM PDT
Moon 7:52 PM PDT (11/1) 10:45 AM PDT (11/1)
Length of Visible Light 11h 03m
Length of Day
9h 59m
Waning Gibbous, 92% of the Moon is Illuminated
Nov 1
Waning Gibbous
Nov 6
Last Quarter
Nov 13
New
Nov 20
First Quarter
Nov 28
Full

Hourly Weather History & Observations

Time (PDT) Temp. Dew Point Humidity Pressure Visibility Wind Dir Wind Speed Gust Speed Precip Events Conditions
12:53 AM 54.0 °F 53.1 °F 97% 29.69 in 8.0 mi ENE 8.1 mph - 0.00 in Rain Light Rain
1:19 AM 53.6 °F 51.8 °F 94% 29.69 in 3.0 mi ESE 4.6 mph 16.1 mph 0.04 in Rain Rain
1:44 AM 53.6 °F 51.8 °F 94% 29.70 in 10.0 mi SE 9.2 mph - 0.06 in Rain Light Rain
1:53 AM 53.6 °F 50.0 °F 88% 29.70 in 10.0 mi SSE 11.5 mph - N/A Rain Light Rain
2:18 AM 53.6 °F 50.0 °F 88% 29.70 in 10.0 mi ESE 9.2 mph - 0.00 in Rain Light Rain
2:44 AM 53.6 °F 50.0 °F 88% 29.71 in 10.0 mi SE 6.9 mph - 0.01 in Rain Light Rain
2:53 AM 53.1 °F 50.0 °F 89% 29.72 in 10.0 mi ESE 6.9 mph - 0.01 in Rain Light Rain
3:20 AM 51.8 °F 50.0 °F 94% 29.71 in 10.0 mi ENE 3.5 mph - 0.00 in   Overcast
3:50 AM 51.8 °F 50.0 °F 94% 29.71 in 10.0 mi NE 4.6 mph - 0.01 in Rain Light Rain
3:53 AM 52.0 °F 50.0 °F 93% 29.72 in 10.0 mi NE 4.6 mph - 0.01 in Rain Light Rain
4:14 AM 51.8 °F 50.0 °F 94% 29.71 in 7.0 mi NE 5.8 mph - 0.01 in Rain Light Rain
4:45 AM 51.8 °F 51.8 °F 100% 29.71 in 2.5 mi ENE 8.1 mph - 0.09 in Rain Rain
4:53 AM 51.8 °F 51.8 °F 100% 29.71 in 3.0 mi NE 8.1 mph - N/A Rain Rain
5:12 AM 51.8 °F 51.8 °F 100% 29.71 in 2.5 mi NE 8.1 mph - 0.08 in Rain Heavy Rain
5:32 AM 51.8 °F 51.8 °F 100% 29.72 in 5.0 mi ENE 8.1 mph - 0.20 in Rain Rain
5:53 AM 52.0 °F 51.1 °F 97% 29.73 in 3.0 mi ENE 8.1 mph - 0.28 in Rain Rain
6:11 AM 51.8 °F 51.8 °F 100% 29.72 in 2.5 mi ENE 6.9 mph - 0.08 in Rain Rain
6:26 AM 51.8 °F 51.8 °F 100% 29.72 in 1.8 mi ENE 6.9 mph - 0.17 in Rain Rain
6:39 AM 51.8 °F 51.8 °F 100% 29.72 in 1.8 mi East 5.8 mph - 0.24 in Rain Rain
6:49 AM 51.8 °F 51.8 °F 100% 29.73 in 3.0 mi ESE 5.8 mph - 0.26 in Rain Light Rain
6:53 AM 52.0 °F 52.0 °F 100% 29.74 in 4.0 mi East 4.6 mph - 0.26 in Rain Light Rain
7:05 AM 53.6 °F 51.8 °F 94% 29.73 in 2.5 mi East 5.8 mph - 0.03 in Rain Light Rain
7:12 AM 53.6 °F 51.8 °F 94% 29.73 in 3.0 mi East 8.1 mph - 0.03 in Rain Light Rain
7:53 AM 53.1 °F 52.0 °F 96% 29.75 in 5.0 mi ENE 8.1 mph - 0.04 in Rain Light Rain
8:05 AM 53.6 °F 51.8 °F 94% 29.74 in 8.0 mi ENE 5.8 mph - 0.00 in   Overcast
8:21 AM 53.6 °F 51.8 °F 94% 29.75 in 1.8 mi ENE 4.6 mph - 0.00 in Rain Light Rain
8:31 AM 53.6 °F 51.8 °F 94% 29.75 in 2.0 mi ENE 6.9 mph - 0.01 in Rain Light Rain
8:41 AM 53.6 °F 51.8 °F 94% 29.75 in 5.0 mi ENE 6.9 mph - 0.01 in   Overcast
8:53 AM 53.1 °F 52.0 °F 96% 29.77 in 6.0 mi ENE 5.8 mph - 0.01 in   Overcast
9:53 AM 54.0 °F 53.1 °F 97% 29.79 in 4.0 mi ENE 5.8 mph - 0.01 in   Overcast
10:40 AM 55.4 °F 53.6 °F 94% 29.80 in 10.0 mi East 4.6 mph - N/A   Mostly Cloudy
10:53 AM 55.0 °F 53.1 °F 93% 29.82 in 2.5 mi ENE 5.8 mph - 0.00 in Rain Light Rain
11:03 AM 55.4 °F 53.6 °F 94% 29.81 in 8.0 mi East 4.6 mph - 0.00 in   Overcast
11:37 AM 55.4 °F 51.8 °F 88% 29.83 in 10.0 mi South 12.7 mph - 0.00 in   Overcast
11:53 AM 55.0 °F 53.1 °F 93% 29.86 in 10.0 mi SSE 8.1 mph - 0.00 in   Overcast
12:26 PM 55.4 °F 53.6 °F 94% 29.86 in 10.0 mi South 6.9 mph - N/A   Overcast
12:49 PM 55.4 °F 53.6 °F 94% 29.87 in 8.0 mi South 10.4 mph - N/A   Overcast
12:53 PM 55.0 °F 53.1 °F 93% 29.88 in 9.0 mi South 10.4 mph - N/A   Overcast
1:41 PM 55.4 °F 53.6 °F 94% 29.88 in 10.0 mi South 9.2 mph - 0.01 in   Overcast
1:51 PM 55.4 °F 53.6 °F 94% 29.88 in 10.0 mi South 10.4 mph - 0.01 in   Overcast
1:53 PM 55.9 °F 54.0 °F 93% 29.89 in 10.0 mi South 11.5 mph - 0.01 in   Overcast
2:53 PM 57.0 °F 54.0 °F 89% 29.90 in 10.0 mi South 10.4 mph - 0.00 in   Overcast
3:00 PM 57.2 °F 53.6 °F 88% 29.89 in 10.0 mi South 8.1 mph - N/A   Overcast
3:53 PM 55.9 °F 54.0 °F 93% 29.91 in 10.0 mi SSW 8.1 mph - N/A   Mostly Cloudy
4:13 PM 57.2 °F 53.6 °F 88% 29.90 in 10.0 mi SSW 5.8 mph - N/A   Scattered Clouds
4:38 PM 55.4 °F 53.6 °F 94% 29.90 in 10.0 mi South 4.6 mph - N/A   Mostly Cloudy
4:53 PM 55.9 °F 53.1 °F 90% 29.92 in 10.0 mi South 4.6 mph - N/A   Overcast
5:04 PM 55.4 °F 53.6 °F 94% 29.91 in 8.0 mi South 6.9 mph - 0.00 in Rain Light Rain
5:49 PM 55.4 °F 53.6 °F 94% 29.93 in 7.0 mi South 8.1 mph - 0.01 in Rain Light Rain
5:53 PM 55.0 °F 53.1 °F 93% 29.94 in 10.0 mi South 6.9 mph - 0.01 in   Overcast
6:00 PM 55.4 °F 53.6 °F 94% 29.93 in 10.0 mi South 6.9 mph - N/A   Overcast
6:17 PM 55.4 °F 53.6 °F 94% 29.94 in 10.0 mi South 5.8 mph - N/A   Overcast
6:31 PM 55.4 °F 53.6 °F 94% 29.94 in 8.0 mi South 9.2 mph - N/A   Overcast
6:40 PM 55.4 °F 53.6 °F 94% 29.95 in 2.5 mi South 8.1 mph - 0.02 in Rain Light Rain
6:44 PM 55.4 °F 53.6 °F 94% 29.95 in 3.0 mi South 6.9 mph - 0.02 in Rain Light Rain
6:53 PM 55.0 °F 54.0 °F 96% 29.96 in 7.0 mi South 9.2 mph - 0.02 in Rain Light Rain
7:05 PM 55.4 °F 53.6 °F 94% 29.95 in 10.0 mi South 10.4 mph - 0.00 in   Overcast
7:53 PM 55.0 °F 53.1 °F 93% 29.98 in 10.0 mi South 9.2 mph - 0.00 in   Overcast
8:38 PM 55.4 °F 53.6 °F 94% 29.97 in 10.0 mi South 8.1 mph - N/A   Overcast
8:51 PM 55.4 °F 53.6 °F 94% 29.97 in 10.0 mi South 8.1 mph - N/A   Overcast
8:53 PM 55.0 °F 53.1 °F 93% 29.99 in 10.0 mi South 9.2 mph - N/A   Overcast
9:07 PM 53.6 °F 53.6 °F 100% 29.98 in 10.0 mi South 9.2 mph - N/A   Overcast
9:23 PM 55.4 °F 51.8 °F 88% 29.99 in 10.0 mi South 6.9 mph - N/A   Overcast
9:53 PM 55.0 °F 52.0 °F 89% 30.01 in 10.0 mi SSE 5.8 mph - N/A   Overcast
10:19 PM 53.6 °F 51.8 °F 94% 30.00 in 10.0 mi SE 5.8 mph - N/A   Overcast
10:53 PM 54.0 °F 52.0 °F 93% 30.01 in 10.0 mi SE 4.6 mph - N/A   Overcast
11:34 PM 53.6 °F 51.8 °F 94% 29.99 in 10.0 mi East 4.6 mph - N/A   Overcast
11:41 PM 53.6 °F 51.8 °F 94% 29.99 in 10.0 mi ESE 4.6 mph - N/A   Overcast
11:49 PM 53.6 °F 51.8 °F 94% 30.00 in 10.0 mi ESE 5.8 mph - N/A   Overcast
11:53 PM 54.0 °F 52.0 °F 93% 30.01 in 10.0 mi ESE 5.8 mph - N/A   Overcast